Total_Precipitation_Accumulation
0.13 0.07 0.07 0.06 0.06 0.07 0.07 0.09 0.10 0.10 0.09 0.08 0.08 0.07 0.07 0.07 0.06 0.05 0.05 0.06 0.09 0.14 0.18 0.21 0.23 0.26 0.29 0.23 0.14 0.10 0.09 0.09 0.10 0.12 0.15 0.18 0.20 0.24 0.25 0.20 0.26 0.24 0.17
0.12 0.07 0.07 0.06 0.06 0.07 0.07 0.08 0.10 0.10 0.08 0.08 0.07 0.07 0.06 0.06 0.07 0.07 0.07 0.08 0.11 0.13 0.14 0.16 0.18 0.20 0.19 0.13 0.09 0.09 0.09 0.11 0.19 0.30 0.38 0.38 0.36 0.33 0.35 0.35 0.38 0.32 0.16
0.14 0.09 0.07 0.06 0.06 0.07 0.07 0.09 0.11 0.11 0.10 0.10 0.09 0.08 0.08 0.08 0.08 0.08 0.08 0.09 0.13 0.15 0.15 0.14 0.13 0.12 0.10 0.09 0.08 0.10 0.15 0.20 0.35 0.53 0.82 0.98 0.75 0.57 0.45 0.38 0.33 0.24 0.21
0.15 0.12 0.09 0.07 0.07 0.06 0.06 0.08 0.11 0.11 0.10 0.10 0.09 0.08 0.08 0.08 0.08 0.09 0.10 0.12 0.17 0.20 0.18 0.14 0.11 0.08 0.07 0.07 0.08 0.12 0.18 0.28 0.48 0.74 1.37 1.32 1.20 0.95 0.53 0.39 0.32 0.30 0.36
0.13 0.12 0.12 0.10 0.08 0.07 0.07 0.08 0.11 0.11 0.10 0.10 0.10 0.10 0.10 0.10 0.10 0.12 0.16 0.19 0.21 0.21 0.22 0.19 0.14 0.10 0.07 0.07 0.09 0.14 0.21 0.33 0.63 0.96 1.41 1.71 1.86 1.23 0.70 0.52 0.44 0.42 0.48
0.12 0.11 0.10 0.11 0.11 0.10 0.10 0.10 0.12 0.13 0.12 0.13 0.12 0.13 0.13 0.13 0.13 0.17 0.25 0.30 0.28 0.26 0.28 0.26 0.22 0.15 0.09 0.08 0.10 0.17 0.27 0.43 0.64 0.96 1.43 2.00 1.79 1.24 0.85 0.67 0.58 0.54 0.58
0.15 0.16 0.12 0.14 0.15 0.15 0.15 0.14 0.17 0.17 0.18 0.20 0.19 0.18 0.18 0.17 0.19 0.24 0.32 0.34 0.33 0.31 0.31 0.27 0.20 0.13 0.11 0.12 0.13 0.18 0.31 0.47 0.63 1.13 1.53 1.85 1.62 1.14 0.86 0.69 0.63 0.60 0.61
0.19 0.16 0.14 0.16 0.19 0.20 0.21 0.22 0.22 0.23 0.23 0.24 0.23 0.23 0.20 0.20 0.23 0.28 0.33 0.35 0.35 0.31 0.26 0.21 0.18 0.15 0.16 0.17 0.18 0.23 0.32 0.38 0.49 1.00 1.39 1.51 1.23 1.02 0.89 0.69 0.59 0.55 0.54
0.27 0.27 0.26 0.27 0.26 0.27 0.31 0.33 0.32 0.31 0.30 0.28 0.25 0.23 0.21 0.23 0.26 0.30 0.36 0.40 0.38 0.29 0.24 0.21 0.19 0.17 0.16 0.16 0.17 0.20 0.26 0.37 0.46 0.79 1.30 1.54 1.03 0.96 0.94 0.75 0.60 0.53 0.51
0.55 0.57 0.56 0.55 0.49 0.43 0.39 0.40 0.41 0.41 0.38 0.34 0.28 0.24 0.25 0.30 0.34 0.39 0.36 0.39 0.36 0.31 0.26 0.24 0.20 0.17 0.17 0.17 0.17 0.19 0.25 0.29 0.36 0.72 1.17 1.26 1.06 1.17 1.21 0.98 0.72 0.59 0.52
1.04 1.03 0.94 0.85 0.74 0.76 0.70 0.52 0.54 0.52 0.50 0.43 0.39 0.34 0.38 0.47 0.59 0.64 0.53 0.54 0.47 0.40 0.36 0.34 0.30 0.26 0.24 0.23 0.23 0.25 0.27 0.31 0.51 0.82 1.37 1.41 1.44 1.45 1.45 1.24 0.96 0.79 0.68
1.45 1.31 1.13 1.15 1.12 1.05 0.91 0.83 0.82 0.71 0.68 0.61 0.70 0.60 0.67 0.95 1.06 0.95 0.91 0.74 0.67 0.60 0.53 0.52 0.48 0.40 0.34 0.37 0.42 0.39 0.31 0.37 0.53 0.84 1.17 1.32 1.43 1.57 1.57 1.37 1.13 0.97 0.93
1.54 1.32 1.30 1.42 1.37 1.40 1.38 1.32 1.20 1.14 1.08 0.97 1.06 1.03 1.09 1.10 1.07 1.11 1.16 1.02 0.93 0.87 0.89 0.91 0.71 0.60 0.63 0.67 0.65 0.55 0.46 0.49 0.56 0.77 1.08 1.22 1.33 1.60 1.70 1.53 1.32 1.22 1.13
1.88 1.63 1.51 1.39 1.48 1.66 1.63 1.60 1.59 1.56 1.54 1.45 1.42 1.27 1.37 1.44 1.47 1.44 1.51 1.49 1.51 1.45 1.39 1.31 1.15 1.01 0.95 0.96 0.94 0.89 0.75 0.70 0.81 1.00 1.17 1.15 1.21 1.49 1.72 1.70 1.50 1.39 1.27
2.33 2.12 1.85 1.77 1.74 1.77 1.85 1.87 1.63 1.69 1.74 1.87 1.84 1.63 1.65 1.64 1.68 1.85 1.88 1.96 1.87 1.97 1.89 1.72 1.46 1.34 1.26 1.10 1.08 1.09 1.02 0.97 1.01 1.09 1.27 1.33 1.27 1.42 1.69 1.83 1.69 1.56 1.52
2.49 2.38 2.18 2.00 1.95 1.86 2.04 2.20 2.06 1.90 1.92 1.94 2.01 1.89 1.87 1.90 1.97 2.07 2.13 2.18 2.05 2.05 2.08 1.98 1.71 1.58 1.51 1.38 1.23 1.14 1.09 1.18 1.20 1.15 1.33 1.42 1.34 1.31 1.53 1.86 1.99 2.04 2.06
2.59 2.38 2.37 2.23 2.33 2.40 2.55 2.56 2.57 2.48 2.44 2.39 2.32 2.33 2.27 2.25 2.31 2.29 2.46 2.50 2.33 2.26 2.24 2.16 2.04 1.83 1.76 1.71 1.63 1.47 1.35 1.35 1.48 1.52 1.54 1.66 1.68 1.56 1.59 1.79 1.99 2.12 2.21
2.45 2.48 2.54 2.44 2.51 2.67 2.63 2.51 2.55 2.76 2.76 2.70 2.63 2.68 2.60 2.62 2.69 2.79 2.72 2.58 2.48 2.42 2.42 2.49 2.34 2.11 2.04 2.11 2.02 1.77 1.53 1.52 1.62 1.67 1.65 1.74 1.87 1.78 1.77 1.68 1.76 1.91 2.08
2.35 2.28 2.40 2.56 2.49 2.64 2.67 2.63 2.67 2.90 3.04 3.07 3.05 2.98 2.94 2.99 3.01 3.10 3.11 2.92 2.71 2.61 2.62 2.47 2.48 2.39 2.38 2.35 2.05 1.83 1.58 1.52 1.59 1.60 1.63 1.71 1.88 1.95 1.95 1.77 1.79 1.97 2.10
2.29 2.30 2.34 2.60 2.56 2.72 2.83 2.71 2.77 2.80 2.90 3.02 3.17 3.26 3.40 3.46 3.45 3.46 3.35 3.17 3.01 2.88 2.82 2.73 2.69 2.68 2.52 2.36 1.98 1.79 1.60 1.46 1.47 1.53 1.56 1.62 1.66 1.71 1.77 1.78 1.83 1.78 1.88
2.43 2.45 2.37 2.40 2.58 2.65 2.79 2.91 3.15 3.13 3.11 3.37 3.64 3.77 3.95 4.02 3.85 3.81 3.71 3.55 3.37 3.15 2.99 2.85 2.73 2.63 2.44 2.27 2.09 1.91 1.64 1.40 1.41 1.44 1.40 1.45 1.52 1.52 1.56 1.60 1.75 1.74 1.66
2.51 2.51 2.55 2.70 2.74 2.83 3.18 3.63 4.03 4.33 4.46 4.53 4.73 4.74 4.62 4.46 4.33 4.20 4.10 3.89 3.65 3.42 3.18 2.97 2.75 2.54 2.35 2.19 2.13 2.17 1.94 1.69 1.36 1.17 1.17 1.19 1.23 1.23 1.28 1.34 1.37 1.42 1.42
2.31 2.49 2.56 2.84 3.19 3.54 4.01 4.54 4.96 5.31 5.48 5.35 5.17 5.04 4.81 4.59 4.40 4.08 3.86 3.79 3.58 3.25 3.03 2.87 2.67 2.48 2.26 2.10 2.00 2.11 2.07 1.88 1.57 1.36 1.15 1.05 1.05 1.11 1.14 1.21 1.24 1.19 1.16
2.02 2.30 2.62 2.91 3.47 4.21 4.86 5.41 5.87 6.04 6.00 5.83 5.55 5.16 4.76 4.42 4.10 3.80 3.53 3.26 3.03 2.77 2.55 2.40 2.31 2.25 2.16 2.01 1.93 1.75 1.58 1.48 1.52 1.42 1.25 1.13 1.07 1.08 1.04 0.99 1.01 1.04 1.02
1.85 2.15 2.55 2.96 3.62 4.27 4.89 5.45 5.87 6.04 5.92 5.63 5.17 4.68 4.19 3.72 3.35 3.06 2.79 2.52 2.29 2.11 1.95 1.78 1.73 1.85 1.94 1.93 1.91 1.84 1.69 1.53 1.44 1.38 1.31 1.25 1.17 1.13 1.07 1.01 0.95 0.93 0.90
1.61 1.93 2.33 2.76 3.26 3.76 4.15 4.67 4.99 5.15 5.08 4.76 4.27 3.67 3.20 2.88 2.60 2.34 2.09 1.89 1.70 1.54 1.44 1.37 1.36 1.41 1.53 1.61 1.66 1.68 1.68 1.70 1.67 1.58 1.47 1.41 1.35 1.26 1.16 1.10 1.05 1.02 0.98